Location: Grand Lay
(47.3253°N, 0.9468°E)
Time: 23:29:02
(UTC+00:00)

Cosmos 2341 Rocket - Visible Passes

Search period start: 18 April 2026 00:00
Search period end: 28 April 2026 00:00
Orbit: 968 x 1003 km, 82.9° (Epoch: 18 April)

Date Brightness Start Highest point End Pass type
(mag) Time Alt. Az. Time Alt. Az. Time Alt. Az.
18 Apr 5.0 20:34:22 10° SSW 20:40:24 49° WNW 20:46:32 10° N visible
19 Apr 4.2 19:17:05 10° SSE 19:23:08 54° E 19:29:16 10° NNE visible
19 Apr 6.0 21:03:45 10° SW 21:09:04 28° WNW 21:14:28 10° N visible
20 Apr 7.5 04:29:01 10° NE 04:29:36 10° NE 04:30:11 10° ENE visible
20 Apr 4.1 19:45:06 10° S 19:51:22 86° W 19:57:45 10° N visible
20 Apr 6.7 21:34:08 10° W 21:38:00 17° WNW 21:41:54 10° NNW visible
21 Apr 5.0 20:13:47 10° SSW 20:19:50 49° WNW 20:25:59 10° N visible
22 Apr 6.1 20:43:11 10° SW 20:48:30 28° WNW 20:53:55 10° N visible
23 Apr 7.6 04:08:24 10° NE 04:09:03 10° NE 04:09:41 10° ENE visible
23 Apr 4.2 19:24:31 10° S 19:30:48 86° W 19:37:11 10° N visible
23 Apr 6.8 21:13:32 10° W 21:17:25 17° WNW 21:21:21 10° NNW visible
24 Apr 5.1 19:53:12 10° SSW 19:59:15 49° WNW 20:05:25 10° N visible
25 Apr 6.2 20:22:36 10° SW 20:27:56 29° WNW 20:33:21 10° N visible
26 Apr 7.7 03:47:48 10° NE 03:48:29 10° NE 03:49:10 10° ENE visible
26 Apr 6.9 20:52:58 10° W 20:56:52 17° WNW 21:00:47 10° NNW visible
27 Apr 7.2 04:13:20 10° NNE 04:17:37 18° ENE 04:21:53 10° ESE visible
27 Apr 5.2 19:32:37 10° SSW 19:38:41 49° WNW 19:44:52 10° N visible
